Change the Weather History Date:

Saturday, March 9, 2013

  Actual Average Record
Temperature  
Mean Temperature 40 °F 36 °F  
Max Temperature 50 °F 50 °F 77 °F (1936)
Min Temperature 29 °F 21 °F -4 °F (1877)
Degree Days  
Heating Degree Days 25 29  
Month to date heating degree days 258 273  
Since 1 July heating degree days 5218 5301  
Cooling Degree Days 0 0  
Month to date cooling degree days 0 0  
Year to date cooling degree days 0 0  
Moisture  
Dew Point 34 °F    
Average Humidity 88    
Maximum Humidity 100    
Minimum Humidity 75    
Precipitation  
Precipitation 0.05 in 0.03 in 0.51 in (2010)
Month to date precipitation 0.08 0.25  
Year to date precipitation 1.36 1.09  
Snow  
Snow 1.10 in 0.10 in 3.10 in (1992)
Month to date snowfall 1.6 1.4  
Since 1 July snowfall 21.5 22.3  
Snow Depth 1.00 in    
Sea Level Pressure  
Sea Level Pressure 29.70 in    
Wind  
Wind Speed 20 mph (NNE)    
Max Wind Speed 36 mph    
Max Gust Speed 45 mph    
Visibility 4 miles    
Events Fog , Rain , Snow    
T = Trace of Precipitation, MM = Missing Value Source: NWS Daily Summary

Daily Weather History Graph

Daily Weather History Graph

Search for Another Location

Airport or City:

Trip Planner

Search our weather history database for the weather conditions in past years. The results will help you decide how hot, cold, wet, or windy it might be!

Date:

Astronomy

Mar. 09, 2013 Rise Set
Actual Time 7:03 AM CST 6:43 PM CST
Civil Twilight 6:36 AM CST 7:10 PM CST
Nautical Twilight 6:04 AM CST 7:42 PM CST
Astronomical Twilight 5:32 AM CST 8:14 PM CST
Moon 5:29 AM CST (3/9) 4:46 PM CST (3/9)
Length of Visible Light 12h 34m
Length of Day
11h 39m
Waning Crescent, 5% of the Moon is Illuminated
Mar 9
Waning Crescent
Mar 11
New
Mar 19
First Quarter
Mar 27
Full
Apr 2
Last Quarter

Hourly Weather History & Observations

Time (CST) Temp. Windchill Dew Point Humidity Pressure Visibility Wind Dir Wind Speed Gust Speed Precip Events Conditions
12:46 AM 48.2 °F - 46.4 °F 93% 29.66 in 4.0 mi ESE 9.2 mph - N/A   Overcast
12:53 AM 48.0 °F - 46.0 °F 93% 29.65 in 4.0 mi ESE 8.1 mph - N/A   Overcast
1:43 AM 50.0 °F - 48.2 °F 94% 29.65 in 4.0 mi ESE 13.8 mph - N/A   Overcast
1:53 AM 50.0 °F - 48.0 °F 93% 29.65 in 3.0 mi ESE 11.5 mph - N/A   Overcast
2:10 AM 50.0 °F - 48.2 °F 94% 29.66 in 2.5 mi ESE 11.5 mph - N/A   Overcast
2:41 AM 48.2 °F - 48.2 °F 100% 29.64 in 1.5 mi ESE 11.5 mph - N/A   Overcast
2:51 AM 48.2 °F - 46.4 °F 93% 29.64 in 1.0 mi ESE 11.5 mph - N/A   Overcast
2:53 AM 48.0 °F - 46.9 °F 96% 29.64 in 1.0 mi ESE 9.2 mph - N/A   Overcast
3:04 AM 48.2 °F - 46.4 °F 93% 29.63 in 0.5 mi ESE 9.2 mph - N/A Fog Fog
3:42 AM 46.4 °F 40.7 °F 46.4 °F 100% 29.59 in 0.2 mi East 12.7 mph - N/A Fog Fog
3:53 AM 46.9 °F - 46.9 °F 100% 29.59 in 0.2 mi ESE 10.4 mph - N/A Fog Fog
4:43 AM 46.4 °F 40.7 °F 46.4 °F 100% 29.57 in 0.2 mi ESE 12.7 mph - N/A Fog Fog
4:53 AM 46.9 °F - 46.0 °F 97% 29.57 in 0.2 mi ESE 13.8 mph - N/A Fog Fog
5:09 AM 46.4 °F 40.7 °F 46.4 °F 100% 29.56 in 0.2 mi ESE 12.7 mph - N/A Fog Fog
5:53 AM 46.9 °F - 46.9 °F 100% 29.56 in 0.2 mi East 8.1 mph - N/A Fog Fog
6:08 AM 46.4 °F 42.4 °F 46.4 °F 100% 29.55 in 0.5 mi East 8.1 mph - N/A Fog Fog
6:15 AM 46.4 °F 43.5 °F 46.4 °F 100% 29.55 in 1.5 mi East 5.8 mph - N/A   Overcast
6:23 AM 46.4 °F 44.3 °F 46.4 °F 100% 29.55 in 2.5 mi East 4.6 mph - N/A   Overcast
6:38 AM 46.4 °F 44.3 °F 46.4 °F 100% 29.55 in 3.0 mi East 4.6 mph - N/A   Overcast
6:53 AM 48.0 °F - 46.9 °F 96% 29.55 in 4.0 mi NE 5.8 mph - N/A   Overcast
7:09 AM 48.2 °F - 46.4 °F 93% 29.54 in 5.0 mi NE 6.9 mph - N/A   Overcast
7:40 AM 44.6 °F 39.7 °F 44.6 °F 100% 29.55 in 2.5 mi North 9.2 mph 18.4 mph N/A   Overcast
7:48 AM 39.2 °F 30.2 °F 37.4 °F 93% 29.55 in 2.0 mi NNE 17.3 mph 23.0 mph N/A   Overcast
7:53 AM 39.0 °F 29.9 °F 37.0 °F 93% 29.58 in 2.0 mi North 17.3 mph 24.2 mph N/A   Overcast
8:36 AM 35.6 °F 24.0 °F 33.8 °F 93% 29.58 in 3.0 mi North 23.0 mph 32.2 mph N/A   Overcast
8:53 AM 36.0 °F 24.4 °F 34.0 °F 93% 29.60 in 4.0 mi North 23.0 mph 33.4 mph N/A   Overcast
9:22 AM 35.6 °F 23.2 °F 33.8 °F 93% 29.58 in 10.0 mi NNE 26.5 mph 35.7 mph N/A   Overcast
9:45 AM 35.6 °F 23.2 °F 33.8 °F 93% 29.57 in 10.0 mi NNE 26.5 mph 38.0 mph N/A   Overcast
9:53 AM 36.0 °F 22.8 °F 33.1 °F 89% 29.59 in 10.0 mi NNE 31.1 mph 38.0 mph N/A   Overcast
10:15 AM 37.4 °F 24.8 °F 33.8 °F 87% 29.57 in 10.0 mi NNE 31.1 mph 38.0 mph N/A   Overcast
10:38 AM 37.4 °F 24.8 °F 32.0 °F 81% 29.57 in 10.0 mi NNE 31.1 mph 41.4 mph N/A   Overcast
10:53 AM 36.0 °F 24.7 °F 30.9 °F 82% 29.60 in 10.0 mi NNE 21.9 mph 44.9 mph N/A   Overcast
11:53 AM 34.0 °F 20.8 °F 28.9 °F 82% 29.63 in 10.0 mi North 27.6 mph 38.0 mph N/A   Overcast
12:53 PM 33.1 °F 19.1 °F 26.1 °F 75% 29.65 in 10.0 mi North 29.9 mph 41.4 mph N/A   Overcast
1:29 PM 32.0 °F 20.1 °F 26.6 °F 80% 29.64 in 10.0 mi North 19.6 mph 39.1 mph N/A   Overcast
1:53 PM 30.9 °F 16.9 °F 26.1 °F 82% 29.66 in 10.0 mi North 26.5 mph 33.4 mph N/A   Overcast
2:53 PM 30.0 °F 17.9 °F 26.1 °F 85% 29.70 in 5.0 mi North 18.4 mph 33.4 mph N/A   Overcast
3:11 PM 30.2 °F 17.8 °F 26.6 °F 86% 29.68 in 4.0 mi North 19.6 mph 32.2 mph 0.00 in Rain Light Freezing Rain
3:53 PM 30.0 °F 16.9 °F 25.0 °F 82% 29.71 in 10.0 mi North 21.9 mph 38.0 mph 0.00 in   Overcast
4:16 PM 30.2 °F 16.5 °F 24.8 °F 80% 29.68 in 10.0 mi North 24.2 mph 35.7 mph N/A   Overcast
4:31 PM 30.2 °F 17.1 °F 24.8 °F 80% 29.70 in 10.0 mi North 21.9 mph 33.4 mph N/A   Overcast
4:53 PM 30.0 °F 16.0 °F 25.0 °F 82% 29.73 in 10.0 mi North 25.3 mph 35.7 mph N/A   Overcast
5:02 PM 30.2 °F 17.4 °F 24.8 °F 80% 29.70 in 9.0 mi North 20.7 mph 34.5 mph N/A   Overcast
5:53 PM 30.9 °F 17.8 °F 26.1 °F 82% 29.76 in 7.0 mi North 23.0 mph 38.0 mph 0.00 in   Overcast
6:16 PM 30.2 °F 16.8 °F 26.6 °F 86% 29.74 in 2.5 mi North 23.0 mph 32.2 mph 0.00 in Snow Light Snow
6:53 PM 30.9 °F 19.1 °F 27.0 °F 85% 29.80 in 2.5 mi North 18.4 mph 29.9 mph 0.00 in Snow Light Snow
7:03 PM 30.2 °F 16.8 °F 26.6 °F 86% 29.77 in 2.5 mi North 23.0 mph 32.2 mph 0.00 in Snow Light Snow
7:10 PM 32.0 °F 18.6 °F 26.6 °F 80% 29.77 in 3.0 mi North 25.3 mph 39.1 mph 0.00 in Snow Light Snow
7:25 PM 32.0 °F 18.1 °F 26.6 °F 80% 29.78 in 2.0 mi North 27.6 mph 38.0 mph 0.00 in Snow Light Snow
7:46 PM 30.2 °F 16.2 °F 26.6 °F 86% 29.79 in 1.5 mi North 25.3 mph 38.0 mph 0.00 in Snow Light Snow
7:50 PM 30.2 °F 16.5 °F 26.6 °F 86% 29.80 in 1.2 mi North 24.2 mph 35.7 mph 0.00 in Snow Light Snow
7:53 PM 30.9 °F 17.8 °F 27.0 °F 85% 29.85 in 1.0 mi North 23.0 mph 35.7 mph 0.00 in Snow Light Snow
8:03 PM 30.2 °F 16.8 °F 26.6 °F 86% 29.80 in 0.8 mi North 23.0 mph 33.4 mph 0.00 in Snow Light Snow
8:13 PM 30.2 °F 17.1 °F 28.4 °F 93% 29.81 in 0.5 mi North 21.9 mph 34.5 mph 0.00 in Fog , Snow Snow
8:53 PM 30.9 °F 17.2 °F 27.0 °F 85% 29.88 in 0.8 mi North 25.3 mph 33.4 mph 0.03 in Snow Light Snow
9:08 PM 30.2 °F 17.4 °F 26.6 °F 86% 29.84 in 1.0 mi North 20.7 mph 28.8 mph 0.00 in Snow Light Snow
9:38 PM 32.0 °F 19.5 °F 26.6 °F 80% 29.87 in 1.5 mi North 21.9 mph 31.1 mph 0.01 in Snow Light Snow
9:47 PM 30.2 °F 16.5 °F 26.6 °F 86% 29.87 in 1.2 mi North 24.2 mph 31.1 mph 0.01 in Snow Light Snow
9:53 PM 30.9 °F 17.5 °F 27.0 °F 85% 29.93 in 1.2 mi North 24.2 mph 32.2 mph 0.01 in Snow Light Snow
10:12 PM 30.2 °F 17.8 °F 28.4 °F 93% 29.88 in 1.0 mi North 19.6 mph 33.4 mph 0.01 in Snow Light Snow
10:30 PM 30.2 °F 16.2 °F 26.6 °F 86% 29.88 in 1.2 mi North 25.3 mph 35.7 mph 0.01 in Snow Light Snow
10:53 PM 30.9 °F 17.2 °F 27.0 °F 85% 29.95 in 1.2 mi North 25.3 mph 34.5 mph 0.01 in Snow Light Snow
11:00 PM 30.2 °F 16.2 °F 26.6 °F 86% 29.89 in 1.5 mi North 25.3 mph 34.5 mph 0.00 in Snow Light Snow
11:04 PM 30.2 °F 14.7 °F 26.6 °F 86% 29.89 in 1.2 mi North 32.2 mph 41.4 mph 0.00 in Snow Light Snow
11:10 PM 30.2 °F 15.4 °F 26.6 °F 86% 29.89 in 0.8 mi North 28.8 mph 41.4 mph N/A Snow Light Snow
11:19 PM 30.2 °F 15.9 °F 26.6 °F 86% 29.89 in 1.0 mi North 26.5 mph 35.7 mph 0.00 in Snow Light Snow
11:40 PM 30.2 °F 16.2 °F 26.6 °F 86% 29.90 in 2.0 mi North 25.3 mph 33.4 mph 0.00 in Snow Light Snow
11:53 PM 30.9 °F 16.4 °F 27.0 °F 85% 29.97 in 2.0 mi North 28.8 mph 34.5 mph 0.00 in Snow Light Snow